Kosmos-1159

operational
NORAD ID: 11694 Int'l Des: 1980-012 Owner: GUKOSR Country: SU
LEOCIRCULAR

Über Kosmos-1159

Beschreibung wird geladen...

Live-Position

3D-Globus wird geladen...

Nächste Überflüge

Höhenverlauf

Altitude vs Time

uPlot chart will show altitude changes over time

Zweizeiliger Elementsatz

1 11694U 80012D 26063.52672262 .00000010 00000-0 16710-3 0 9990
2 11694 74.0181 95.4675 0017236 70.9751 43.3793 12.50125700101899
Epoch: 4. März 2026 • Age: 22 hours

Aktueller Status

Höhe 1464.3 km
Geschwindigkeit 7.14 km/s
Subsatellitenpunkt 65.92°N, 99.47°E
Startdatum 11. Feb. 1980
Alter 46 years
Typ other

Technische Details

Klassifizierung Payload
Masse 60.00 kg
Trockenmasse 60.00 kg
Gesamtmasse 60.00 kg
Länge 0.80 m
Durchmesser 0.80 m
Spannweite 0.80 m
Form Poly
Hersteller NPOPM
Bus-Typ Strela-1 11F625
Phasenstatus In Orbit
Besitzer/Staat GUKOSR/SU

Große Konstellationen

Loading constellations...